Location: Unspecified
(0.0000°N, 0.0000°E)
Time: 07:46:05
(UTC+02:00)

Cosmos 1538 Rocket - Visible Passes

Search period start: 01 August 2014 00:00
Search period end: 11 August 2014 00:00
Orbit: 753 x 793 km, 74.0° (Epoch: 31 July)

Date Brightness Start Highest point End Pass type
(mag) Time Alt. Az. Time Alt. Az. Time Alt. Az.
01 Aug 4.4 21:15:50 10° SSE 21:20:33 36° ESE 21:25:14 10° NE visible
01 Aug 6.9 23:00:35 10° W 23:02:25 12° WNW 23:04:15 10° NW visible
02 Aug 5.2 20:41:36 10° SE 20:45:07 19° ESE 20:48:37 10° ENE visible
02 Aug 6.1 22:22:53 10° SW 22:26:59 24° WNW 22:31:04 10° NNW visible
03 Aug 4.9 21:46:37 10° SSW 21:51:34 47° WNW 21:56:30 10° N visible
04 Aug 3.9 21:10:59 10° S 21:16:09 85° ESE 21:21:17 10° NNE visible
05 Aug 4.3 20:35:53 10° S 20:40:44 42° ESE 20:45:33 10° NNE visible
06 Aug 6.5 21:43:21 10° SW 21:47:10 21° WNW 21:50:59 10° NNW visible
07 Aug 5.4 21:06:55 10° SSW 21:11:45 41° WNW 21:16:34 10° N visible
08 Aug 4.1 20:31:10 10° SSW 20:36:20 84° WNW 20:41:28 10° N visible
09 Aug 7.3 07:24:14 10° NE 07:27:39 17° ENE 07:31:04 10° ESE visible
10 Aug 7.0 21:03:53 10° WSW 21:07:21 18° WNW 21:10:50 10° NW visible
